Tracking 19920 objects as of 14-Oct-2019
HD Live streaming from Space Station
objects crossing your sky now

SL-8 DEB *

Track SL-8 DEB * now!
10-day predictions


NORAD ID: 14803
Int'l Code: 1978-019D
Perigee: 567.4 km
Apogee: 570.8 km
Inclination: 74.0 °
Period: 95.9 minutes
Semi major axis: 6940 km
RCS: 0.0099 m2 (small)
Launch date: February 17, 1978
Source: Commonwealth of Independent States (former USSR) (CIS)
Launch site: PLESETSK MISSILE AND SPACE COMPLEX (PKMTR)

Note: This is SATELLITE DEBRIS
aabbcc
Your satellite tracking list
Your tracking list is empty




NASA's NSSDC Master Catalog

Two Line Element Set (TLE):
1 14803U 78019D   19286.74689612  .00000952  00000-0  76699-4 0  9997
2 14803  74.0236 156.1595 0002441 181.2053 244.9274 15.01586245 70290
Source of the keplerian elements: AFSPC